Weather History for Greenville, AL

Change the Weather History Date:

Friday, February 17, 2012

  Actual Average Record
Temperature  
Mean Temperature 59 °F -  
Max Temperature 70 °F 65 °F 80 °F (1956)
Min Temperature 48 °F 41 °F 14 °F (1958)
Degree Days  
Heating Degree Days 6    
Growing Degree Days 9 (Base 50)    
Moisture  
Dew Point 48 °F    
Average Humidity 72    
Maximum Humidity 90    
Minimum Humidity 42    
Precipitation  
Precipitation 0.00 in - - ()
Sea Level Pressure  
Sea Level Pressure 30.06 in    
Wind  
Wind Speed 4 mph (NNE)    
Max Wind Speed 8 mph    
Max Gust Speed -    
Visibility 10 miles    
Events      
Averages and records for this station are not official NWS values.
T = Trace of Precipitation, MM = Missing Value Source: NWS Daily Summary

Daily Weather History Graph

Daily Weather History Graph

Search for Another Location

Airport:

Trip Planner

Search our weather history database for the weather conditions in past years. The results will help you decide how hot, cold, wet, or windy it might be!

Date:

Astronomy

Feb. 17, 2012 Rise Set
Actual Time 6:27 AM CST 5:34 PM CST
Civil Twilight 6:02 AM CST 5:59 PM CST
Nautical Twilight 5:33 AM CST 6:27 PM CST
Astronomical Twilight 5:05 AM CST 6:56 PM CST
Moon 3:06 AM CST (2/17) 1:37 PM CST (2/17)
Length of Visible Light 11h 57m
Length of Day
11h 07m
Waning Crescent, 19% of the Moon is Illuminated
Feb 17
Waning Crescent
Feb 21
New
Feb 29
First Quarter
Mar 8
Full
Mar 14
Last Quarter

Hourly Weather History & Observations

Time (CST) Temp. Dew Point Humidity Pressure Visibility Wind Dir Wind Speed Gust Speed Precip Events Conditions
12:56 AM 55.9 °F 51.1 °F 84% 30.06 in 10.0 mi North 4.6 mph - N/A   Clear
1:56 AM 54.0 °F 51.1 °F 90% 30.04 in 10.0 mi North 4.6 mph - N/A   Clear
2:56 AM 54.0 °F 50.0 °F 86% 30.04 in 10.0 mi North 3.5 mph - N/A   Clear
3:56 AM 54.0 °F 48.9 °F 83% 30.06 in 10.0 mi North 5.8 mph - N/A   Clear
4:56 AM 52.0 °F 48.9 °F 89% 30.08 in 10.0 mi North 3.5 mph - N/A   Clear
5:56 AM 52.0 °F 48.9 °F 89% 30.11 in 10.0 mi NNW 5.8 mph - N/A   Clear
6:56 AM 52.0 °F 48.0 °F 86% 30.11 in 10.0 mi North 3.5 mph - N/A   Clear
7:56 AM 53.1 °F 48.0 °F 83% 30.11 in 10.0 mi NNE 4.6 mph - N/A   Clear
8:56 AM 55.9 °F 48.0 °F 75% 30.13 in 10.0 mi NNE 8.1 mph - N/A   Clear
9:56 AM 57.9 °F 48.0 °F 70% 30.12 in 10.0 mi East 5.8 mph - N/A   Clear
10:56 AM 61.0 °F 48.9 °F 64% 30.11 in 10.0 mi East 4.6 mph - N/A   Clear
11:56 AM 64.0 °F 48.9 °F 58% 30.09 in 10.0 mi Calm Calm - N/A   Clear
12:56 PM 66.9 °F 48.9 °F 52% 30.05 in 10.0 mi South 4.6 mph - N/A   Clear
1:56 PM 66.9 °F 48.0 °F 51% 30.03 in 10.0 mi ESE 4.6 mph - N/A   Clear
2:56 PM 69.1 °F 46.9 °F 45% 30.01 in 10.0 mi Calm Calm - N/A   Clear
3:56 PM 70.0 °F 46.0 °F 42% 30.01 in 10.0 mi Calm Calm - N/A   Clear
4:56 PM 68.0 °F 46.0 °F 45% 30.01 in 10.0 mi North 4.6 mph - N/A   Clear
5:56 PM 64.0 °F 46.0 °F 52% 30.03 in 10.0 mi NNE 3.5 mph - N/A   Clear
6:56 PM 57.0 °F 48.9 °F 74% 30.04 in 10.0 mi North 3.5 mph - N/A   Clear
7:56 PM 57.0 °F 48.0 °F 72% 30.03 in 10.0 mi Calm Calm - N/A   Clear
8:56 PM 53.1 °F 46.9 °F 80% 30.04 in 10.0 mi Calm Calm - N/A   Clear
9:56 PM 51.1 °F 46.9 °F 86% 30.05 in 10.0 mi Calm Calm - N/A   Clear
10:56 PM 48.9 °F 46.0 °F 90% 30.05 in 10.0 mi North 4.6 mph - N/A   Clear
11:56 PM 48.9 °F 45.0 °F 86% 30.03 in 10.0 mi Calm Calm - N/A   Clear